OAL293 LGKR-LGAV

Flight info

Callsign OAL293
Flight time 0h 46m
Altitude 29000
Route MALED UA14 ARA UB34 NEMES
Aircraft A320/M-SDE3FGHIRWY/LB1

Departure

Time 2026-05-07 21:07
Airport Corfu Ioannis Kapodistrias International Airport (LGKR)

Arrival

Time 2026-05-07 21:54
Airport Athens Eleftherios Venizelos International Airport (LGAV)
Time Latitude Longitude Altitude Speed Heading
2026-05-07 20:49 39.60872 19.91224 15 ft 0 kts 77°
2026-05-07 21:01 39.60871 19.91217 15 ft 3 kts 77°
2026-05-07 21:01 39.60867 19.91194 18 ft 3 kts 64°
2026-05-07 21:01 39.60857 19.91175 15 ft 3 kts 27°
2026-05-07 21:01 39.60843 19.91169 14 ft 0 kts
2026-05-07 21:04 39.60861 19.91169 14 ft 6 kts 358°
2026-05-07 21:04 39.60910 19.91159 15 ft 8 kts 349°
2026-05-07 21:04 39.60973 19.91145 15 ft 10 kts 349°
2026-05-07 21:05 39.61049 19.91127 15 ft 12 kts 349°
2026-05-07 21:05 39.61139 19.91104 15 ft 14 kts 341°
2026-05-07 21:05 39.61168 19.91092 15 ft 0 kts 341°
2026-05-07 21:05 39.61188 19.91082 17 ft 5 kts 338°
2026-05-07 21:06 39.61221 19.91035 15 ft 9 kts 302°
2026-05-07 21:06 39.61223 19.90962 17 ft 9 kts 216°
2026-05-07 21:06 39.61163 19.90964 16 ft 0 kts 169°
2026-05-07 21:06 39.61148 19.90968 16 ft 11 kts 168°
2026-05-07 21:07 39.60803 19.91059 17 ft 87 kts 169°
2026-05-07 21:07 39.60017 19.91261 16 ft 142 kts 168°
2026-05-07 21:07 39.58953 19.91536 334 ft 158 kts 169°
2026-05-07 21:07 39.57899 19.91907 997 ft 156 kts 150°
2026-05-07 21:08 39.57098 19.92805 1692 ft 152 kts 124°
2026-05-07 21:08 39.56592 19.94055 2053 ft 166 kts 123°
2026-05-07 21:08 39.55828 19.95250 2350 ft 183 kts 137°
2026-05-07 21:08 39.54815 19.96388 2646 ft 205 kts 141°
2026-05-07 21:09 39.53640 19.97629 2999 ft 230 kts 141°
2026-05-07 21:09 39.52421 19.99099 3585 ft 245 kts 138°
2026-05-07 21:09 39.51128 20.00540 4570 ft 238 kts 144°
2026-05-07 21:09 39.49855 20.01806 5764 ft 232 kts 146°
2026-05-07 21:10 39.48526 20.03123 6292 ft 248 kts 146°
2026-05-07 21:10 39.47133 20.04507 7023 ft 255 kts 146°
2026-05-07 21:10 39.45723 20.05915 7796 ft 260 kts 146°
2026-05-07 21:10 39.44265 20.07372 8531 ft 268 kts 146°
2026-05-07 21:11 39.42785 20.08884 9396 ft 274 kts 146°
2026-05-07 21:11 39.41291 20.10435 10186 ft 278 kts 146°
2026-05-07 21:11 39.38051 20.13797 10695 ft 321 kts 146°
2026-05-07 21:12 39.36266 20.15646 10955 ft 339 kts 145°
2026-05-07 21:12 39.34409 20.17576 11511 ft 346 kts 145°
2026-05-07 21:12 39.32516 20.19543 12117 ft 351 kts 146°
2026-05-07 21:12 39.30602 20.21531 12726 ft 356 kts 146°
2026-05-07 21:13 39.28649 20.23559 13335 ft 362 kts 146°
2026-05-07 21:13 39.26669 20.25603 13927 ft 367 kts 146°
2026-05-07 21:13 39.24647 20.27681 14466 ft 371 kts 146°
2026-05-07 21:13 39.22612 20.29771 15005 ft 376 kts 146°
2026-05-07 21:14 39.20558 20.31884 15547 ft 380 kts 146°
2026-05-07 21:14 39.18490 20.34016 16086 ft 383 kts 146°
2026-05-07 21:14 39.16396 20.36173 16623 ft 387 kts 146°
2026-05-07 21:14 39.14305 20.38323 17163 ft 391 kts 146°
2026-05-07 21:15 39.12166 20.40521 17722 ft 395 kts 146°
2026-05-07 21:15 39.10005 20.42744 18285 ft 400 kts 146°
2026-05-07 21:15 39.07822 20.44990 18786 ft 404 kts 146°
2026-05-07 21:15 39.05618 20.47257 19281 ft 408 kts 146°
2026-05-07 21:16 39.03380 20.49538 19774 ft 413 kts 146°
2026-05-07 21:16 39.01108 20.51819 20268 ft 417 kts 146°
2026-05-07 21:16 38.98804 20.54111 20753 ft 421 kts 146°
2026-05-07 21:16 38.96465 20.56429 21218 ft 426 kts 146°
2026-05-07 21:17 38.94103 20.58765 21667 ft 430 kts 146°
2026-05-07 21:17 38.91721 20.61122 22098 ft 434 kts 146°
2026-05-07 21:17 38.89319 20.63506 22521 ft 438 kts 146°
2026-05-07 21:17 38.86895 20.65914 22931 ft 443 kts 146°
2026-05-07 21:18 38.84462 20.68366 23338 ft 447 kts 145°
2026-05-07 21:18 38.82029 20.70864 23732 ft 451 kts 145°
2026-05-07 21:18 38.79565 20.73421 24065 ft 455 kts 145°
2026-05-07 21:18 38.77108 20.75977 24408 ft 458 kts 145°
2026-05-07 21:19 38.74621 20.78558 24747 ft 461 kts 145°
2026-05-07 21:19 38.72115 20.81149 25075 ft 464 kts 145°
2026-05-07 21:19 38.69588 20.83747 25399 ft 467 kts 146°
2026-05-07 21:19 38.67071 20.86325 25706 ft 470 kts 146°
2026-05-07 21:20 38.64512 20.88937 26009 ft 472 kts 146°
2026-05-07 21:20 38.61933 20.91566 26357 ft 475 kts 146°
2026-05-07 21:20 38.59360 20.94191 27043 ft 466 kts 146°
2026-05-07 21:20 38.56909 20.96799 28184 ft 452 kts 145°
2026-05-07 21:21 38.54539 20.99443 28737 ft 452 kts 144°
2026-05-07 21:21 38.52182 21.02139 29003 ft 458 kts 144°
2026-05-07 21:21 38.49785 21.04902 29104 ft 468 kts 144°
2026-05-07 21:21 38.47334 21.07716 29115 ft 479 kts 144°
2026-05-07 21:22 38.42260 21.13476 29113 ft 495 kts 144°
2026-05-07 21:22 38.37075 21.19304 29124 ft 498 kts 144°
2026-05-07 21:23 38.31868 21.25126 29131 ft 498 kts 144°
2026-05-07 21:23 38.26647 21.30950 29134 ft 499 kts 144°
2026-05-07 21:24 38.21454 21.36742 29135 ft 499 kts 144°
2026-05-07 21:24 38.16478 21.42965 29131 ft 507 kts 132°
2026-05-07 21:25 38.12885 21.50742 29123 ft 513 kts 118°
2026-05-07 21:25 38.09761 21.58850 29120 ft 514 kts 118°
2026-05-07 21:26 38.06593 21.66975 29126 ft 514 kts 118°
2026-05-07 21:26 38.03415 21.75117 29128 ft 514 kts 118°
2026-05-07 21:27 38.00240 21.83261 29136 ft 515 kts 118°
2026-05-07 21:27 37.97079 21.91360 29136 ft 514 kts 118°
2026-05-07 21:28 37.93894 21.99466 29132 ft 514 kts 118°
2026-05-07 21:28 37.90703 22.07577 29148 ft 515 kts 118°
2026-05-07 21:29 37.87510 22.15684 29148 ft 515 kts 118°
2026-05-07 21:29 37.84296 22.23796 29153 ft 515 kts 118°
2026-05-07 21:30 37.81072 22.31911 29150 ft 515 kts 118°
2026-05-07 21:30 37.77863 22.39992 29152 ft 515 kts 118°
2026-05-07 21:31 37.74635 22.48111 29156 ft 515 kts 118°
2026-05-07 21:31 37.71427 22.56135 29149 ft 515 kts 118°
2026-05-07 21:32 37.68282 22.64279 29144 ft 516 kts 116°
2026-05-07 21:32 37.66811 22.68414 28905 ft 516 kts 115°
2026-05-07 21:32 37.65382 22.72550 28110 ft 514 kts 114°
2026-05-07 21:33 37.63968 22.76679 27365 ft 511 kts 114°
2026-05-07 21:33 37.62551 22.80770 26617 ft 508 kts 114°
2026-05-07 21:33 37.61121 22.84827 25876 ft 504 kts 115°
2026-05-07 21:33 37.59681 22.88842 25136 ft 501 kts 115°
2026-05-07 21:34 37.58241 22.92822 24572 ft 493 kts 115°
2026-05-07 21:34 37.56829 22.96709 23991 ft 486 kts 115°
2026-05-07 21:34 37.55435 23.00550 23342 ft 479 kts 115°
2026-05-07 21:34 37.54060 23.04346 22667 ft 473 kts 115°
2026-05-07 21:35 37.52704 23.08094 21996 ft 467 kts 115°
2026-05-07 21:35 37.51436 23.11852 21337 ft 462 kts 108°
2026-05-07 21:35 37.50977 23.14440 20932 ft 458 kts 96°
2026-05-07 21:35 37.51038 23.18405 20315 ft 451 kts 79°
2026-05-07 21:36 37.51995 23.22117 19721 ft 443 kts 61°
2026-05-07 21:36 37.53729 23.25294 19154 ft 435 kts 44°
2026-05-07 21:36 37.56858 23.28308 18406 ft 425 kts 27°
2026-05-07 21:36 37.58596 23.29574 17949 ft 424 kts 27°
2026-05-07 21:37 37.61111 23.31390 17337 ft 421 kts 27°
2026-05-07 21:37 37.63655 23.33221 16812 ft 418 kts 27°
2026-05-07 21:37 37.66170 23.35036 16263 ft 414 kts 27°
2026-05-07 21:37 37.68663 23.36843 15682 ft 411 kts 27°
2026-05-07 21:38 37.71133 23.38638 15119 ft 408 kts 27°
2026-05-07 21:38 37.73567 23.40451 14553 ft 406 kts 31°
2026-05-07 21:38 37.75733 23.42742 14003 ft 407 kts 44°
2026-05-07 21:38 37.77440 23.45571 13381 ft 404 kts 57°
2026-05-07 21:39 37.78647 23.48745 12310 ft 398 kts 67°
2026-05-07 21:39 37.79676 23.51949 11727 ft 391 kts 67°
2026-05-07 21:39 37.80691 23.55111 11143 ft 387 kts 67°
2026-05-07 21:39 37.81706 23.58258 10758 ft 379 kts 67°
2026-05-07 21:40 37.82680 23.61274 10637 ft 363 kts 67°
2026-05-07 21:40 37.83616 23.64172 10514 ft 349 kts 67°
2026-05-07 21:40 37.84523 23.66979 10408 ft 337 kts 67°
2026-05-07 21:40 37.85395 23.69679 10293 ft 326 kts 67°
2026-05-07 21:41 37.86242 23.72301 10167 ft 316 kts 67°
2026-05-07 21:41 37.87057 23.74821 9924 ft 312 kts 68°
2026-05-07 21:41 37.87876 23.77363 9607 ft 310 kts 68°
2026-05-07 21:41 37.88687 23.79880 9276 ft 307 kts 68°
2026-05-07 21:42 37.89438 23.82391 8713 ft 303 kts 71°
2026-05-07 21:42 37.90100 23.84904 8096 ft 300 kts 72°
2026-05-07 21:42 37.90721 23.87399 7597 ft 294 kts 73°
2026-05-07 21:42 37.91318 23.89825 7247 ft 292 kts 73°
2026-05-07 21:43 37.91930 23.92299 7009 ft 293 kts 73°
2026-05-07 21:43 37.92540 23.94722 7005 ft 287 kts 73°
2026-05-07 21:43 37.93151 23.97129 7010 ft 287 kts 73°
2026-05-07 21:43 37.93768 23.99538 7011 ft 288 kts 72°
2026-05-07 21:44 37.94387 24.01943 7011 ft 287 kts 72°
2026-05-07 21:44 37.95003 24.04347 7011 ft 287 kts 72°
2026-05-07 21:44 37.95618 24.06751 7010 ft 287 kts 72°
2026-05-07 21:44 37.96228 24.09137 6853 ft 290 kts 72°
2026-05-07 21:45 37.96846 24.11563 6547 ft 288 kts 72°
2026-05-07 21:45 37.97460 24.13973 6256 ft 284 kts 72°
2026-05-07 21:45 37.98065 24.16347 5978 ft 282 kts 73°
2026-05-07 21:45 37.98696 24.18689 5700 ft 280 kts 66°
2026-05-07 21:46 37.99867 24.20642 5361 ft 282 kts 38°
2026-05-07 21:46 38.01633 24.21681 5028 ft 281 kts
2026-05-07 21:46 38.03512 24.21580 4894 ft 262 kts 342°
2026-05-07 21:46 38.05108 24.20639 4633 ft 247 kts 328°
2026-05-07 21:47 38.06544 24.19511 4341 ft 242 kts 323°
2026-05-07 21:47 38.07918 24.18263 4204 ft 243 kts 319°
2026-05-07 21:47 38.09225 24.16910 3933 ft 240 kts 315°
2026-05-07 21:47 38.10402 24.15526 3760 ft 222 kts 311°
2026-05-07 21:48 38.11475 24.14157 3398 ft 217 kts 309°
2026-05-07 21:48 38.12182 24.12559 3029 ft 201 kts 270°
2026-05-07 21:48 38.11884 24.10904 2992 ft 187 kts 231°
2026-05-07 21:48 38.10953 24.09820 2997 ft 180 kts 217°
2026-05-07 21:49 38.09966 24.08861 3002 ft 178 kts 216°
2026-05-07 21:49 38.08977 24.07917 3003 ft 177 kts 216°
2026-05-07 21:49 38.07998 24.06986 3008 ft 178 kts 216°
2026-05-07 21:49 38.07023 24.06058 3003 ft 170 kts 216°
2026-05-07 21:50 38.06109 24.05187 3039 ft 160 kts 216°
2026-05-07 21:50 38.05231 24.04351 2879 ft 156 kts 215°
2026-05-07 21:50 38.04373 24.03536 2696 ft 152 kts 216°
2026-05-07 21:50 38.03545 24.02746 2511 ft 144 kts 216°
2026-05-07 21:51 38.02771 24.02008 2311 ft 136 kts 216°
2026-05-07 21:51 38.02022 24.01293 2138 ft 134 kts 216°
2026-05-07 21:51 38.01275 24.00581 1939 ft 134 kts 216°
2026-05-07 21:51 38.00527 23.99866 1780 ft 134 kts 216°
2026-05-07 21:52 37.99780 23.99156 1606 ft 133 kts 216°
2026-05-07 21:52 37.99039 23.98454 1399 ft 133 kts 216°
2026-05-07 21:52 37.98300 23.97730 1207 ft 136 kts 216°
2026-05-07 21:52 37.97538 23.97017 1116 ft 137 kts 216°
2026-05-07 21:53 37.96779 23.96291 928 ft 138 kts 219°
2026-05-07 21:53 37.96012 23.95560 703 ft 139 kts 217°
2026-05-07 21:53 37.95246 23.94833 486 ft 138 kts 219°
2026-05-07 21:53 37.94486 23.94109 315 ft 136 kts 219°
2026-05-07 21:54 37.93804 23.93462 283 ft 105 kts 218°
2026-05-07 21:54 37.93422 23.93093 278 ft 27 kts 214°
2026-05-07 21:54 37.93275 23.93124 276 ft 7 kts 169°
2026-05-07 21:54 37.93268 23.93126 276 ft 0 kts 169°
2026-05-07 21:55 37.93263 23.93127 276 ft 2 kts 169°
2026-05-07 21:55 37.93236 23.93125 276 ft 8 kts 192°
2026-05-07 21:55 37.93171 23.93119 275 ft 9 kts 144°
2026-05-07 21:55 37.93206 23.93167 276 ft 11 kts 35°
2026-05-07 21:56 37.93277 23.93237 277 ft 14 kts 36°
2026-05-07 21:56 37.93358 23.93312 278 ft 15 kts 36°
2026-05-07 21:56 37.93427 23.93392 279 ft 12 kts 68°
2026-05-07 21:56 37.93385 23.93510 279 ft 19 kts 125°
2026-05-07 21:57 37.93301 23.93657 279 ft 22 kts 126°
2026-05-07 21:57 37.93203 23.93815 280 ft 24 kts 128°
2026-05-07 21:57 37.93102 23.93989 281 ft 25 kts 129°
2026-05-07 21:57 37.93018 23.94126 281 ft 10 kts 126°
2026-05-07 21:58 37.93018 23.94165 281 ft 5 kts 64°
2026-05-07 21:58 37.93062 23.94217 283 ft 9 kts 36°
2026-05-07 21:58 37.93082 23.94234 282 ft 0 kts 33°